Hourly Data Report for November 10, 2017

All times are specified in Local Standard Time (LST). Add 1 hour to adjust for Daylight Saving Time where and when it is observed.

GREENWOOD A
NOVA SCOTIA

44°59'00.000" N
64°55'00.000" W
28.00 m
8202000
71397
YZX

Download Data

Hourly Data (November 2017)
Hourly Data Report for November 10, 2017
Temp Definition
°C
Dew Point Temp Definition
°C
Rel Hum Definition
%
Wind Dir Definition
10's deg

Wind Spd Definition
km/h
Visibility Definition
km
Stn Press Definition
kPa
Hmdx Definition


Wind Chill Definition


Weather Definition


TIME
00:00 3.6 1.1 84 4 6 24.1 101.43     Mainly Clear
01:00 2.9 1.0 87 2 6 24.1 101.29     Mostly Cloudy
02:00 4.0 2.2 88 11 6 24.1 101.20     Mostly Cloudy
03:00 3.8 2.0 88 7 6 24.1 101.02     Mainly Clear
04:00 5.2 3.7 90 36 13 24.1 100.87     Mostly Cloudy
05:00 9.3 6.6 83 17 19 24.1 100.69     Mainly Clear
06:00 10.0 7.0 82 15 35 24.1 100.59     Mostly Cloudy
07:00 10.2 8.0 86 16 28 16.1 100.46     Rain Showers
08:00 10.7 8.0 83 16 30 16.1 100.38     Rain Showers
09:00 11.8 9.7 87 18 24 16.1 100.32     Rain Showers
10:00 12.3 10.6 89 23 22 2.4 100.30     Moderate Rain Showers,Fog
11:00 11.0 9.6 91 23 17 16.1 100.23     Drizzle
12:00 10.7 8.1 84 27 32 12.9 100.18     Rain Showers
13:00 4.8 3.3 90 29 26 12.9 100.32     Rain Showers
14:00 3.8 1.5 85 27 28 24.1 100.41     Rain Showers
15:00 2.6 -2.5 69 28 26 24.1 100.49     Cloudy
16:00 2.0 -2.1 74 29 30 24.1 100.59     Snow Showers
17:00 0.8 -2.1 81 29 30 24.1 100.75     Mostly Cloudy
18:00 0.4 -3.2 77 28 26 24.1 100.85     Mainly Clear
19:00 0.1 -3.6 76 28 19 24.1 100.89     Mainly Clear
20:00 -0.7 -6.3 66 27 37 24.1 101.00   -8 Mainly Clear
21:00 -2.4 -11.1 51 29 39 24.1 101.06   -11 Mainly Clear
22:00 -2.3 -10.1 55 26 33 24.1 101.14   -10 Mainly Clear
23:00 -2.9 -10.2 57 28 35 24.1 101.19   -11 Mostly Cloudy

Notes on Data Quality.

Legend

  • E = Estimated
  • M = Missing
  • NA = Not Available
  • ‡ = Partner data that is not subject to review by the National Climate Archives
Date modified: